Wenn Sie den Mauscursor in der Übersichtskarte über ein Stationssymbol ziehen, so werden die aktuellen Stationsdaten eingeblendet. Dabei handelt es sich um die jeweils aktuell vorliegenden Messwerte einer Station (siehe Datum und Uhrzeitangabe).

Durch Anklicken des entsprechenden Stationssymbols gelangen Sie zu den Gangliniendarstellung der Niederschlagshöhe und der Lufttemperatur. Jeder Parameter ist für einen Zeitraum für 30 Tage dargestellt. Die Lufttemperaturganglinie wird dabei dem am längsten verfügbaren Vergleichszeitraum gegenüber gestellt. Somit kann man für jeden Zeitpunkt der aktuellen Lufttemperaturganglinie sehen, welchen Schwankungsbereich die Lufttemperatur im Vergleichszeitraum exakt für diesen Kalendertag bzw. Zeitpunkt bisher aufgewiesen hat und somit kann man die aktuelle Lufttemperatur gegenüber den langjährigen Verhältnissen sehr gut einstufen.  

Zudem können Sie die Daten für die letzten 30 Tage downloaden.

Die  Stationssymbole auf der Übersichtskarte werden entsprechend der aktuellen Lufttemperatur bei der jeweiligen Station eingefärbt (siehe dazu Legende neben der Übersichtskarte).

Stationsname Zeit [MEZ] NS [mm/15min] NS [mm/24h] Temp [°C] Luftfeuchte [%]
Andau 27.01.2023 04:45 0,0 0,0 0,6
Apetlon - A79 27.01.2023 05:00 0,0 0,0 1,0 100,0
Aspang 27.01.2023 04:45 0,0 1,0 -1,9
Bad Tatzmannsdorf 27.01.2023 04:45 0,0 1,1 -0,8
Bernstein 27.01.2023 04:45 0,0 1,7 -3,5
Bonisdorf 27.01.2023 05:00 0,0 0,8 -1,3 100,0
Bruckneudorf 27.01.2023 04:45 0,0 1,7 0,0
Deutsch Jahrndorf 27.01.2023 05:00 0,0 0,0 0,6 97,0
Deutsch Kaltenbrunn 27.01.2023 05:00 0,0 0,4 -1,5
Deutschkreutz 27.01.2023 05:00 0,0 0,4 0,2 91,0
Donnerskirchen 27.01.2023 05:00 0,0 0,7 0,5 82,0
Drassburg 27.01.2023 05:00 0,0 1,5 -0,8 97,0
Dürnbach 27.01.2023 05:00 0,0 0,0 -1,0 85,0
Eisenstadt 27.01.2023 05:00 0,0 0,9 -0,3 100,0
Feldbach 27.01.2023 04:45 0,0 0,6 -0,7
Fischbach 27.01.2023 04:45 0,0 0,0 -5,5
Frankenau 27.01.2023 05:00 0,0 0,0 0,1 94,0
Frauenkirchen 27.01.2023 05:00 0,0 0,0 -0,1 100,0
Fürstenfeld 27.01.2023 04:45 0,0 0,1 -0,3
Gattendorf 27.01.2023 05:00 0,0 0,0 0,2 90,0
Glasing 27.01.2023 05:00 0,0 0,0 -0,1
Gleisdorf 27.01.2023 04:45 0,0 0,0 -0,8
Halbturn 27.01.2023 05:00 0,0 0,0 0,5 95,0
Heiligenkreuz 27.01.2023 05:00 0,0 0,3 -0,1 89,0
Hirschenkogel 27.01.2023 04:45 0,0 0,0 -0,8
Hirschenstein 27.01.2023 05:00 0,0 0,9 -4,1 100,0
Illmitz - Biologische Station 27.01.2023 05:00 0,0 0,1 0,8
Karl 27.01.2023 05:00 0,0 0,6 -1,3 94,0
Kleinzicken 27.01.2023 04:45 0,0 0,1 -0,2
Kobersdorf 27.01.2023 05:00 0,0 0,6 -1,7 99,0
Lutzmannsburg 27.01.2023 04:45 0,0 0,0 0,1
Mattersburg 27.01.2023 04:45 0,0 1,5 -0,9
Moenichkirchen 27.01.2023 04:45 0,0 0,1 -5,8
Nebersdorf 27.01.2023 05:00 0,0 0,0 0,1 91,0
Neumarkt an der Raab 27.01.2023 05:00 0,0 0,4 -0,1 100,0
Neusiedl am See 27.01.2023 04:45 0,0 0,0 0,7
Neustift an der Rosalia 27.01.2023 05:00 0,0 2,5 -3,4 100,0
Nickelsdorf 27.01.2023 05:00 0,0 0,0 0,6 100,0
Nikitsch 27.01.2023 05:00 0,0 0,1 -0,5 95,0
Oberpullendorf 27.01.2023 05:00 0,0 0,4 0,3 86,0
Oberwart 27.01.2023 05:00 0,0 0,7 -0,7 89,0
Pinkafeld 27.01.2023 05:00 0,0 0,6 -1,2 100,0
Pottschach 27.01.2023 04:45 0,0 0,9 -1,6
Puchberg 27.01.2023 04:45 0,0 0,0 -2,3
Ritzing 27.01.2023 05:00 0,0 1,0 -1,1 100,0
Rust 27.01.2023 05:00 0,0 0,8 0,9 87,0
Seibersdorf 27.01.2023 04:45 0,0 1,1 -0,2
Sieggraben 27.01.2023 05:00 0,0 2,1 -2,4 100,0
St. Margarethen - Berg 27.01.2023 05:00 0,0 1,7 -0,3 93,0
St. Michael 27.01.2023 05:00 0,0 0,3 -0,9 93,0
Stadtschlaining 27.01.2023 05:00 0,0 1,1 -2,4 48,0
Trausdorf 27.01.2023 05:00 0,0 0,9 0,3 97,0
Wiener Neustadt 27.01.2023 04:45 0,0 0,6 -0,7
Woerterberg 27.01.2023 04:45 0,0 0,3 -1,4
Wulkaprodersdorf 27.01.2023 05:00 0,0 1,1 0,6 89,0
Zurndorf - Friedrichshof 27.01.2023 05:00 0,0 0,0 0,0 100,0